Location: Poigny-la-Forêt
(48.6876°N, 1.7701°E)
Time: 04:27:50
(UTC+02:00)

ISS - Pass Details

Date: 29 March 2019
Orbit: 408 x 410 km, 51.6° (Epoch: 20 April)

Event Time Altitude Azimuth Distance (km) Brightness Sun altitude
Rises 20:02:33 0° 268° (W) 2,336 1.8 -7.9°
Reaches altitude 10° 20:04:41 10° 273° (W) 1,475 0.6 -8.3°
Maximum altitude 20:07:55 53° 352° (N) 513 -3.2 -8.8°
Drops below altitude 10° 20:11:10 10° 70° (ENE) 1,476 -1.5 -9.3°
Enters shadow 20:11:20 - 71° (ENE) 1,539 -1.4 -9.3°
